FW4110 Weather Reports


time (UTC)temp
C
wind
direction
speed
KPH
gust
KPH
rain 1hr
cm
rain 24hr
cm
rain mn
cm
humidity
%
barometer
mb
20260504180148 24 301 1.6 8.0 0.00 0.00 0.00 66 1006.9
20260504174548 24 183 4.8 11.3 0.00 0.00 0.00 65 1007.0
20260504173043 25 282 4.8 16.1 0.00 0.00 0.00 64 1007.2
20260504171542 24 133 6.4 19.3 0.00 0.00 0.00 67 1007.2
20260504081530 18 270 1.6 6.4 0.00 0.00 0.00 74 1009.6
20260504044602 19 244 1.6 17.7 0.00 0.00 0.00 73 1010.8
20260504043054 19 308 4.8 17.7 0.00 0.00 0.00 72 1011.1
20260504041547 19 134 3.2 12.9 0.00 0.00 0.00 72 1011.2
20260504040103 20 148 3.2 12.9 0.00 0.00 0.00 71 1011.3
20260504034606 20 89 0.0 14.5 0.00 0.00 0.00 71 1011.2
20260504033039 20 169 4.8 11.3 0.00 0.00 0.00 71 1012.1
20260504031537 20 198 3.2 11.3 0.00 0.00 0.00 70 1012.3
20260504030039 20 196 3.2 11.3 0.00 0.00 0.00 70 1012.0
20260504024533 20 178 3.2 9.7 0.00 0.00 0.00 70 1011.8
20260504023031 20 155 0.0 8.0 0.00 0.00 0.00 70 1011.6
20260504021529 20 168 1.6 8.0 0.00 0.00 0.00 69 1011.6
20260504020029 20 153 1.6 6.4 0.00 0.00 0.00 68 1011.4
20260504014525 21 175 0.0 6.4 0.00 0.00 0.00 67 1011.4
20260504013030 21 297 0.0 6.4 0.00 0.00 0.00 66 1011.2
20260504011523 21 189 1.6 9.7 0.00 0.00 0.00 65 1011.3
20260504010021 22 235 1.6 4.8 0.00 0.00 0.00 64 1011.1
20260504004518 22 245 1.6 6.4 0.00 0.00 0.00 63 1011.1
20260504003016 23 154 0.0 9.7 0.00 0.00 0.00 61 1011.0
20260504001516 24 204 3.2 9.7 0.00 0.00 0.00 59 1011.0
20260504000010 25 273 3.2 9.7 0.00 0.00 0.00 58 1011.1
20260503234510 25 223 4.8 12.9 0.00 0.00 0.00 58 1011.2
20260503233005 25 287 1.6 14.5 0.00 0.00 0.00 57 1011.3
20260503231504 25 260 6.4 17.7 0.00 0.00 0.00 56 1011.5
20260503224556 25 239 4.8 19.3 0.00 0.00 0.00 54 1011.9
20260503223052 25 277 4.8 22.5 0.00 0.00 0.00 54 1012.0
20260503221553 26 229 4.8 19.3 0.00 0.00 0.00 52 1012.0
20260503220049 26 234 6.4 20.9 0.00 0.00 0.00 51 1012.1
20260503214551 26 242 3.2 24.1 0.00 0.00 0.00 52 1012.1
20260503213045 25 220 6.4 19.3 0.00 0.00 0.00 51 1012.2
20260503211540 25 246 11.3 30.6 0.00 0.00 0.00 50 1012.2
20260503210035 25 218 8.0 25.7 0.00 0.00 0.00 50 1012.6
20260503204533 25 320 9.7 27.4 0.00 0.00 0.00 50 1012.7
20260503203026 25 310 9.7 27.4 0.00 0.00 0.00 50 1012.8
20260503201522 25 163 6.4 24.1 0.00 0.00 0.00 51 1013.3
20260503200018 24 287 9.7 27.4 0.00 0.00 0.00 51 1013.7
20260503194515 24 309 8.0 32.2 0.00 0.00 0.00 52 1014.2
20260503193011 23 174 6.4 17.7 0.00 0.00 0.00 52 1014.6
20260503191505 23 263 11.3 25.7 0.00 0.00 0.00 54 1015.1
20260503190001 23 247 6.4 22.5 0.00 0.00 0.00 53 1015.5
20260503184556 22 283 6.4 24.1 0.00 0.00 0.00 53 1016.1
20260503183059 22 161 11.3 25.7 0.00 0.00 0.00 55 1016.3
20260503181545 21 265 8.0 17.7 0.00 0.00 0.00 56 1016.7